Location: ???? ?????-????
(44.8210°N, 135.5789°E)
Time: 04:58:07
(UTC+00:00)

Daily predictions for brighter satellites

Satellite Brightness Start Highest point End
(mag) Time Altitude Azimuth Time Altitude Azimuth Time Altitude Azimuth
Cosmos 2341 Rocket 4.1 10:11:21 10° S 10:17:32 67° E 10:23:49 10° NNE
CZ-4B R/B 4.3 10:14:09 10° ESE 10:18:54 29° ENE 10:23:41 10° N
NOSS 0 Rocket 4.3 10:13:17 10° SSW 10:19:31 75° WNW 10:25:46 10° NNE
NOSS 2-1 (C) 4.1 10:17:23 10° NNW 10:20:29 34° NE 10:24:24 10° ESE
Cosmos 1869 Rocket 3.8 10:16:09 10° SSW 10:20:33 77° W 10:25:00 10° N
Cosmos 2366 rocket 4.0 10:17:09 10° S 10:23:14 69° E 10:29:20 10° NNE
USA 32 4.4 10:19:01 10° SSE 10:23:57 45° E 10:28:56 10° NNE
Cosmos 1346 Rocket 4.2 10:24:11 10° NNE 10:26:45 18° ENE 10:29:18 10° ESE
Cosmos 614 Rocket 4.1 10:24:26 10° NNW 10:29:34 61° ENE 10:34:36 10° SSE
Cosmos 1400 Rocket 3.0 10:26:30 10° SSE 10:29:51 39° E 10:33:16 10° NNE
COSMOS 2428 4.3 10:25:11 10° SW 10:30:34 41° NW 10:35:59 10° NNE
NOSS 3-4 (A) 3.6 10:26:01 10° SW 10:31:14 66° NW 10:37:00 10° NE
NOSS 3-4 (C) 3.6 10:26:31 10° SW 10:31:46 67° NW 10:37:34 10° NE
Cosmos 1125 Rocket 3.5 10:28:40 10° S 10:33:50 67° ESE 10:39:04 10° NNE
SL-4 R/B 3.8 10:34:08 10° SE 10:35:06 11° SE 10:35:32 11° ESE
CSL-04 Debris 4.2 10:29:57 10° SSE 10:35:17 70° ENE 10:40:40 10° N
NOSS 8 (A) 4.2 10:32:55 10° NNW 10:35:48 64° NE 10:38:53 11° SE
Meteor 1-31 Rocket 2.6 10:33:17 10° SSE 10:36:44 60° ENE 10:40:14 10° N
BREEZE-M DEB (TANK) 3.4 10:36:02 10° WNW 10:38:07 29° N 10:40:33 10° ENE
ERS-1 Rocket 3.4 10:35:31 10° SE 10:40:13 44° ENE 10:44:58 10° N
SL-8 R/B 3.7 10:38:14 10° SW 10:42:54 63° SSE 10:47:34 10° ENE
RESURS DK-1 2.5 10:39:40 10° SSW 10:43:36 74° WNW 10:47:34 10° NNE
SL-16 R/B 2.7 10:41:25 10° S 10:46:31 36° ESE 10:51:39 10° NE
Gblst 52 Del rocket 4.4 10:40:47 10° SW 10:46:37 82° SSE 10:53:18 10° ENE
BREEZE-M DEB (TANK) 4.4 10:53:44 10° W 10:55:37 15° SW 10:57:06 10° S
Cosmos 44 3.5 10:53:41 10° SSW 10:58:33 55° ESE 11:03:42 10° NE
Cosmos 1821 Rocket 4.0 10:52:35 10° S 10:58:52 85° E 11:05:16 10° N
Cosmos 1674 Rocket 3.7 10:55:32 10° N 10:59:48 53° E 11:03:25 14° SSE
Cosmos 1602 4.3 10:59:14 10° NNE 11:00:40 17° ENE 11:00:40 17° ENE
Okean-O 3.6 11:00:35 17° ESE 11:03:02 29° ENE 11:06:49 10° N
Cosmos 2218 Rocket 4.4 10:58:12 10° SSW 11:04:16 65° W 11:10:25 10° N
PAYLOAD B 4.2 10:58:51 10° SSE 11:04:19 79° ENE 11:09:50 10° NNW
Cosmos 1656 Rocket 3.6 11:00:42 10° NNW 11:06:11 75° ENE 11:10:37 16° SSE
Spot 2 Rocket 4.2 11:02:58 17° SE 11:06:15 37° ENE 11:10:51 10° N
Cosmos 1908 Rocket 4.1 11:04:07 14° SSE 11:07:27 37° E 11:11:27 10° NNE
Cosmos 1812 1.7 11:08:29 20° SW 11:09:21 44° W 11:10:59 10° N
Meteor 2-15 Rocket 4.5 11:05:03 10° S 11:11:08 85° W 11:17:16 10° N
SPOT 5 3.9 11:07:36 10° S 11:11:53 41° W 11:16:02 10° NNW
Okean O Rocket 2.3 11:09:41 21° ESE 11:11:59 36° ENE 11:15:57 10° N
Cosmos 405 Rocket 4.3 11:10:38 10° NE 11:11:49 13° ENE 11:11:49 13° ENE
Cosmos 1378 Rocket 3.7 11:07:47 10° NNW 11:12:10 76° W 11:16:29 10° S
USA 186 2.9 11:12:54 17° NE 11:12:54 17° NE 11:14:11 10° NNE
Cosmos 2237 Rocket 3.6 11:09:20 10° SW 11:14:43 42° WNW 11:20:08 10° NNE
USA 59 Rocket 0.5 11:13:07 10° NW 11:16:35 51° SW 11:20:00 17° SSE
Cosmos 1000 Rocket 4.4 11:10:58 10° N 11:17:07 68° E 11:22:17 15° SSE
Meteor 2-16 Rocket 4.4 11:12:26 10° N 11:18:35 75° E 11:23:57 14° SSE
Terra 1.8 11:19:06 14° SSE 11:23:07 86° WSW 11:27:50 10° NNW
USA 234 3.2 11:17:37 10° NE 11:24:10 72° SE 11:30:42 10° SW
Cosmos 2150 Rocket 3.9 11:21:53 10° S 11:26:57 65° ESE 11:32:07 10° NNE
CZ-4 R/B 2.7 11:25:01 10° SSW 11:28:26 33° W 11:31:49 10° NNW
Cosmos 1025 Rocket 3.0 11:25:34 10° N 11:29:50 85° W 11:32:44 20° S
Gbstr 26 Del rocket 3.8 11:29:52 10° SSW 11:34:41 35° SE 11:35:43 31° ESE
Cosmos 2285 Rocket 3.9 11:29:03 10° S 11:35:22 73° ESE 11:41:42 10° NNE
BREEZE-M DEB (TANK) 3.7 11:34:37 10° WNW 11:37:04 39° N 11:41:22 12° ENE
Cosmos 2297 3.9 11:32:46 10° NNW 11:38:28 58° ENE 11:41:09 30° SE
Dummy Sat-01 4.4 11:38:08 36° SSE 11:39:29 74° E 11:43:08 10° N
Cosmos 2369 Rocket 2.2 11:37:56 10° NNW 11:43:33 70° ENE 11:46:05 33° SE
Cosmos 1300 Rocket 3.5 11:44:02 37° SSE 11:45:28 59° E 11:49:42 10° NNE
ASTEX 1 3.3 11:43:18 25° S 11:46:10 86° E 11:51:08 10° N
ADEOS 4.0 11:42:55 16° S 11:47:04 58° WSW 11:52:13 10° NNW
SPOT 3 Rocket 4.0 11:45:32 33° ESE 11:47:16 44° ENE 11:52:09 10° N
SL-08 R/B 4.4 11:43:36 10° N 11:49:51 85° E 11:53:45 25° S
Cosmos 2058 4.1 11:52:35 10° NNE 11:55:29 25° ENE 11:55:29 25° ENE
